Wind_Speed
4 4 4 3 3 3 2 1 1 1 1 1 1 1 1 2 3 3 4 4 5 6 6 6 6 6 6 6 7 7 7 8 8 8 9 8 9 9 8 8 8 8 9
4 4 3 3 3 3 2 2 1 0 1 1 1 1 2 3 4 4 5 4 5 6 7 7 6 7 7 7 8 8 8 8 8 9 9 10 10 10 9 8 9 9 9
3 3 3 3 2 2 2 2 2 2 2 2 2 2 3 4 4 4 5 5 5 6 6 7 7 7 7 8 9 9 9 9 9 10 10 11 11 10 10 10 10 10 10
3 3 3 3 2 2 2 2 2 2 2 3 3 4 4 4 4 5 6 5 5 6 6 7 8 7 8 9 9 10 10 11 11 11 12 12 11 11 11 11 11 11 12
4 3 3 4 3 3 3 3 3 3 3 3 3 4 5 5 5 5 5 6 6 6 7 8 8 8 8 9 10 11 12 12 12 12 12 12 13 12 12 12 11 11 12
4 3 4 4 4 4 4 4 4 4 4 4 4 5 5 6 6 6 7 7 6 7 7 8 8 9 9 10 11 12 13 13 13 13 13 13 13 13 12 12 12 12 12
4 4 4 4 5 5 5 4 5 5 5 5 5 5 6 6 6 7 8 7 8 8 9 9 10 10 10 11 12 12 13 14 14 14 13 13 13 13 13 13 13 13 13
3 4 4 5 5 5 5 5 5 5 6 6 6 7 7 7 8 9 8 9 9 9 10 10 10 11 12 12 12 13 13 14 14 14 14 13 13 13 14 13 13 13 14
4 4 4 5 5 5 6 6 6 6 6 7 7 7 8 9 8 9 10 10 10 10 10 10 11 12 12 14 13 13 14 14 14 13 13 13 13 14 15 14 14 14 14
4 4 4 5 5 6 6 7 7 7 7 8 8 9 9 10 9 10 11 10 10 11 11 12 13 13 13 13 13 14 14 14 13 13 13 13 13 14 14 14 14 14 14
6 6 5 5 6 6 7 8 8 8 8 8 9 9 10 11 11 11 11 11 11 12 12 12 12 12 12 13 13 14 14 14 14 14 14 14 14 14 14 14 14 14 14
7 7 6 7 7 8 8 9 9 9 9 9 10 11 12 12 12 12 13 13 13 13 13 13 13 13 13 14 14 15 15 15 15 15 15 16 15 15 15 15 15 15 15
8 8 7 7 8 9 9 10 10 10 11 11 11 12 13 13 13 13 14 15 14 14 13 14 15 15 15 15 15 15 15 15 16 17 17 17 17 17 17 16 16 17 17
9 9 9 9 9 10 10 11 11 11 11 11 12 13 13 13 14 14 15 15 14 14 14 15 15 16 16 16 16 16 17 17 17 18 19 19 18 18 18 18 18 18 18
11 11 11 11 11 12 12 12 12 13 13 14 14 14 15 15 15 15 16 16 16 16 16 17 18 18 18 18 18 18 18 19 19 20 20 20 20 20 20 19 19 19 19
13 12 12 13 13 14 13 13 13 14 15 15 15 16 16 16 16 17 17 18 18 19 18 19 20 21 21 21 21 21 21 21 21 21 21 21 21 21 21 21 21 20 20
14 15 14 14 14 14 15 14 15 15 16 16 17 17 17 18 18 19 19 19 20 21 21 21 23 23 24 24 22 22 21 22 22 22 22 22 22 22 22 21 21 21 21
16 15 16 16 16 16 16 16 17 17 17 18 18 19 19 19 20 21 21 22 22 23 24 24 24 24 25 25 24 23 22 23 23 23 23 23 23 22 22 22 22 21 21
18 17 18 18 18 18 18 18 19 19 20 20 20 21 21 21 22 22 23 23 23 24 25 25 25 25 26 26 25 24 23 24 24 24 23 23 23 23 22 22 22 21 21
19 20 19 20 20 20 20 21 21 21 22 22 23 23 23 24 24 24 25 25 25 25 26 26 27 27 28 28 27 26 25 26 26 25 24 24 24 24 23 22 22 22 22
20 20 20 21 22 22 23 23 23 24 24 25 25 25 26 26 26 27 27 28 27 28 28 29 30 29 29 30 29 29 28 28 27 27 26 26 26 25 24 24 24 24 24
23 23 22 22 23 24 24 25 26 26 26 27 28 28 28 27 28 29 30 30 30 30 31 31 32 32 31 32 31 31 30 29 28 28 28 27 27 26 26 26 26 26 26
26 25 25 24 24 25 25 26 27 28 29 29 29 29 29 29 30 31 32 32 32 32 33 33 32 32 33 32 33 32 32 31 30 28 28 28 28 27 28 28 28 28 27
26 27 27 26 26 27 27 27 28 29 30 31 31 31 31 31 32 33 33 33 33 33 34 34 33 33 33 32 32 31 31 31 30 29 30 29 28 29 30 30 30 30 29
29 29 28 28 28 28 29 29 30 30 31 31 32 32 32 33 33 35 34 33 33 33 34 34 34 34 33 32 32 31 31 31 31 30 31 30 30 30 31 31 31 30 30
31 31 30 30 30 31 31 31 32 32 32 32 33 33 33 33 34 35 35 34 33 33 33 33 33 33 33 32 31 32 32 33 32 32 31 32 32 33 32 32 32 31 30
Wind_Direction
111 107 105 93 81 65 68 81 96 84 66 51 33 6 355 349 344 340 336 337 342 345 343 341 339 334 338 337 334 330 324 318 311 310 313 309 306 304 295 291 292 289 289
105 101 85 75 65 56 55 58 83 20 13 16 355 339 349 347 345 340 336 341 344 342 341 342 341 338 338 336 332 328 324 321 313 310 312 312 305 299 294 290 291 289 287
64 74 55 55 50 39 34 21 5 349 343 346 346 350 351 347 342 333 335 339 338 340 340 336 333 330 328 328 328 328 326 322 318 312 310 309 306 296 291 288 286 287 287
40 53 43 35 22 20 17 9 6 344 332 332 330 330 331 329 328 328 336 344 338 339 337 327 326 323 322 323 325 323 321 317 314 311 309 308 306 300 293 290 289 288 289
36 40 26 18 7 357 359 353 348 342 337 332 327 327 324 319 317 323 332 339 341 341 334 325 324 324 324 322 323 321 317 315 314 310 308 306 304 301 295 291 290 291 290
23 23 12 5 359 350 344 346 342 331 328 328 329 333 327 322 328 322 324 329 330 331 327 327 325 324 321 320 320 318 317 314 314 310 308 307 304 302 300 291 287 288 289
12 12 7 358 356 350 351 349 346 340 329 319 324 329 331 328 330 327 326 327 324 323 322 322 325 325 320 320 318 318 317 315 314 311 307 305 304 302 300 295 289 287 287
354 353 358 356 350 346 342 342 334 334 333 326 319 320 326 329 325 317 317 320 323 323 321 323 326 329 327 326 322 321 320 318 316 315 309 303 302 302 299 294 290 288 288
340 344 345 346 345 339 340 336 331 327 324 323 317 313 315 319 317 313 316 318 318 318 322 325 326 326 328 330 325 325 325 325 323 322 316 306 303 303 299 295 292 289 288
332 324 324 326 329 332 328 326 326 320 316 319 320 314 312 314 308 306 309 310 311 313 315 319 322 324 325 329 327 326 324 324 324 323 323 316 309 305 303 301 298 294 289
332 320 307 307 314 319 317 316 315 311 311 315 318 318 316 314 311 312 309 305 307 311 314 314 318 322 323 324 324 323 321 322 323 321 319 315 309 305 302 300 298 296 293
324 322 313 306 305 311 311 311 310 304 304 309 309 311 312 312 312 310 308 308 305 306 308 311 317 319 317 318 319 319 318 319 318 316 315 313 308 304 300 297 295 294 291
317 317 316 313 311 312 310 310 309 305 304 304 307 307 308 309 310 309 308 308 305 305 306 310 311 312 314 316 314 317 317 317 315 314 313 312 309 306 303 298 296 293 291
313 311 309 313 312 311 310 310 310 306 308 305 306 307 309 311 312 308 308 309 307 305 306 308 308 308 311 311 311 311 313 315 315 316 314 312 309 305 303 300 296 292 288
304 304 306 304 301 303 304 305 306 306 307 307 306 307 308 307 308 308 309 308 307 304 302 302 304 304 305 307 309 310 311 311 313 312 312 309 307 304 301 299 297 294 289
297 299 301 300 300 301 303 302 304 303 303 304 304 305 305 305 305 305 306 306 305 301 299 300 302 304 305 305 305 305 306 307 307 307 308 307 305 303 300 297 295 295 292
296 294 297 299 300 302 302 303 304 305 304 302 302 302 304 304 303 302 302 304 304 302 303 302 301 303 303 303 302 302 303 304 304 305 304 305 304 301 299 297 295 295 292
301 296 296 297 298 300 301 302 304 303 303 302 302 302 302 305 306 304 304 305 306 306 305 303 302 301 301 301 299 300 301 302 302 302 302 303 302 300 299 297 293 292 292
298 296 295 296 297 298 300 301 302 302 302 303 302 302 302 304 306 305 305 305 305 304 304 303 304 303 303 302 298 297 298 298 299 301 302 302 301 299 299 297 294 293 291
295 297 294 295 296 297 299 299 299 300 299 301 301 301 301 301 303 303 303 303 302 302 302 301 302 302 301 301 298 296 294 295 296 299 301 301 298 298 297 296 293 292 290
298 297 297 296 297 297 298 298 298 297 297 298 300 300 300 300 300 300 302 301 301 301 301 301 301 300 300 299 296 294 292 293 294 295 296 296 296 295 294 293 292 291 289
296 296 296 296 296 297 298 297 296 296 297 298 297 297 299 299 298 298 300 301 300 301 300 300 300 299 299 297 294 292 291 291 291 293 294 294 294 294 293 291 290 289 288
293 295 293 293 295 297 299 299 298 295 294 295 296 297 297 297 297 296 298 299 299 299 300 300 298 297 297 297 295 293 292 293 293 294 293 293 293 293 291 289 288 288 287
292 293 292 292 293 295 298 300 299 297 295 294 294 295 295 295 296 296 297 298 298 298 298 299 298 297 298 298 296 295 295 294 294 294 294 291 291 292 292 290 289 288 284
290 291 292 292 292 294 296 297 298 296 295 294 294 294 294 294 296 296 296 297 297 297 297 297 298 298 298 298 296 295 294 294 293 293 293 292 292 292 292 291 290 288 284
288 289 289 290 291 292 294 295 296 295 296 296 296 296 295 294 296 296 295 296 296 296 297 297 298 298 297 296 294 294 295 293 292 291 291 291 291 291 291 291 290 288 284
Height
5891 5891 5892 5892 5892 5893 5893 5894 5894 5894 5895 5895 5895 5895 5895 5895 5895 5895 5894 5894 5894 5894 5893 5893 5892 5892 5891 5890 5890 5889 5888 5887 5887 5886 5885 5885 5884 5883 5883 5882 5882 5882 5881
5892 5892 5893 5893 5894 5894 5894 5894 5894 5895 5895 5895 5895 5895 5895 5895 5895 5895 5894 5894 5893 5893 5893 5892 5891 5891 5890 5890 5889 5888 5887 5886 5886 5885 5884 5883 5882 5882 5881 5881 5880 5880 5879
5893 5893 5894 5894 5895 5894 5895 5895 5895 5895 5895 5895 5895 5895 5895 5895 5894 5894 5894 5894 5893 5892 5892 5891 5891 5890 5889 5888 5888 5887 5886 5885 5884 5883 5882 5881 5880 5879 5879 5878 5878 5877 5877
5894 5894 5895 5895 5895 5895 5895 5895 5895 5895 5895 5895 5895 5895 5895 5894 5894 5894 5894 5893 5893 5892 5891 5890 5890 5889 5888 5887 5886 5885 5884 5883 5882 5881 5880 5879 5878 5877 5876 5876 5875 5875 5874
5896 5896 5896 5896 5896 5896 5896 5895 5895 5895 5895 5895 5895 5895 5894 5894 5894 5893 5893 5892 5892 5891 5890 5889 5888 5888 5887 5886 5885 5884 5882 5881 5880 5879 5878 5877 5876 5875 5874 5873 5873 5872 5872
5897 5897 5897 5897 5896 5896 5896 5896 5896 5895 5895 5895 5895 5895 5894 5894 5893 5892 5892 5891 5891 5890 5889 5888 5887 5886 5885 5884 5883 5882 5881 5879 5878 5876 5875 5874 5873 5872 5871 5870 5870 5869 5869
5898 5898 5898 5897 5897 5897 5896 5896 5896 5895 5895 5895 5895 5895 5894 5893 5892 5892 5891 5890 5890 5889 5888 5887 5886 5885 5884 5883 5881 5880 5878 5877 5875 5874 5872 5871 5870 5869 5868 5867 5867 5866 5865
5899 5899 5898 5898 5898 5897 5897 5897 5896 5896 5895 5895 5895 5894 5893 5893 5892 5891 5890 5890 5889 5888 5887 5886 5885 5883 5882 5880 5879 5877 5876 5874 5872 5871 5870 5868 5867 5866 5865 5864 5863 5863 5862
5899 5899 5899 5899 5898 5898 5897 5896 5896 5895 5895 5894 5894 5893 5893 5892 5891 5890 5889 5888 5887 5886 5885 5884 5883 5881 5880 5878 5877 5875 5873 5872 5870 5868 5867 5865 5864 5863 5862 5861 5860 5859 5859
5899 5899 5899 5899 5898 5898 5897 5896 5895 5894 5894 5893 5892 5891 5891 5890 5889 5889 5888 5886 5885 5884 5883 5882 5881 5879 5878 5876 5875 5873 5871 5869 5868 5866 5864 5863 5861 5860 5859 5858 5857 5856 5855
5899 5899 5898 5898 5897 5897 5896 5895 5894 5893 5893 5892 5891 5890 5889 5888 5887 5886 5886 5885 5883 5882 5881 5880 5878 5877 5876 5874 5873 5871 5869 5867 5865 5864 5862 5860 5858 5857 5855 5854 5853 5852 5851
5899 5898 5898 5897 5897 5896 5895 5894 5893 5892 5891 5890 5889 5888 5887 5886 5885 5884 5883 5882 5881 5880 5879 5878 5876 5874 5873 5871 5870 5868 5866 5864 5862 5861 5859 5857 5855 5853 5852 5850 5849 5848 5847
5898 5897 5897 5896 5896 5895 5894 5893 5891 5890 5889 5888 5887 5886 5885 5883 5882 5881 5880 5878 5878 5877 5876 5875 5874 5872 5870 5868 5866 5864 5862 5860 5859 5857 5855 5853 5851 5849 5848 5846 5845 5843 5842
5897 5896 5895 5895 5894 5893 5892 5891 5889 5888 5887 5886 5885 5884 5882 5881 5879 5878 5877 5875 5874 5874 5873 5872 5871 5869 5867 5865 5863 5861 5859 5857 5855 5853 5851 5849 5847 5845 5843 5841 5840 5838 5837
5896 5895 5894 5893 5892 5891 5890 5889 5887 5886 5885 5884 5882 5881 5879 5878 5876 5875 5874 5872 5872 5870 5870 5868 5867 5865 5863 5861 5859 5857 5856 5853 5851 5849 5847 5844 5842 5840 5838 5836 5835 5833 5832
5893 5892 5891 5890 5889 5888 5887 5886 5885 5884 5882 5881 5879 5878 5876 5875 5873 5872 5870 5869 5867 5866 5865 5864 5862 5860 5858 5856 5854 5853 5851 5849 5846 5844 5841 5839 5837 5834 5832 5831 5829 5827 5826
5891 5890 5889 5888 5886 5885 5884 5883 5882 5880 5879 5877 5876 5874 5873 5871 5870 5868 5867 5865 5863 5861 5860 5859 5857 5855 5853 5850 5848 5847 5845 5843 5841 5838 5836 5833 5831 5828 5826 5824 5822 5821 5819
5887 5886 5885 5884 5883 5882 5881 5880 5878 5876 5875 5874 5872 5871 5869 5867 5866 5864 5862 5860 5858 5856 5855 5853 5851 5849 5847 5845 5842 5840 5839 5837 5835 5832 5829 5827 5824 5822 5820 5818 5816 5815 5813
5883 5882 5881 5880 5879 5878 5877 5876 5874 5873 5871 5869 5868 5866 5864 5863 5861 5859 5857 5855 5853 5851 5849 5847 5846 5844 5841 5839 5836 5834 5832 5830 5828 5826 5823 5821 5818 5816 5814 5812 5810 5808 5807
5879 5878 5877 5876 5875 5874 5873 5871 5869 5868 5866 5864 5863 5861 5859 5857 5855 5853 5852 5850 5847 5845 5843 5841 5839 5837 5834 5832 5829 5827 5825 5823 5821 5819 5817 5814 5812 5809 5807 5805 5803 5802 5800
5875 5874 5873 5872 5871 5869 5868 5866 5864 5862 5860 5859 5857 5855 5853 5851 5849 5847 5845 5843 5841 5839 5836 5834 5832 5829 5827 5824 5822 5819 5817 5815 5813 5811 5809 5807 5804 5802 5800 5798 5796 5795 5793
5870 5869 5868 5867 5865 5864 5862 5860 5858 5856 5854 5852 5850 5849 5847 5845 5843 5841 5838 5836 5834 5831 5829 5826 5824 5821 5819 5816 5813 5811 5809 5807 5805 5803 5800 5799 5797 5795 5793 5791 5789 5787 5785
5864 5863 5862 5861 5859 5858 5856 5854 5851 5849 5848 5845 5843 5842 5840 5838 5836 5833 5831 5829 5826 5823 5821 5818 5815 5813 5810 5808 5805 5802 5800 5797 5795 5794 5792 5790 5788 5787 5785 5783 5781 5779 5778
5858 5857 5855 5854 5853 5851 5849 5847 5844 5842 5840 5837 5835 5834 5832 5830 5828 5825 5823 5821 5818 5815 5812 5809 5807 5804 5802 5799 5796 5794 5791 5789 5787 5785 5783 5781 5779 5778 5776 5774 5772 5770 5768
5851 5850 5848 5847 5845 5844 5842 5840 5837 5835 5833 5830 5828 5826 5824 5822 5820 5817 5815 5812 5810 5807 5804 5801 5799 5796 5793 5790 5788 5785 5783 5781 5779 5777 5774 5772 5770 5768 5766 5765 5763 5761 5759
5843 5842 5840 5839 5838 5836 5834 5832 5829 5827 5825 5822 5820 5818 5816 5814 5811 5808 5806 5803 5801 5798 5795 5793 5790 5787 5784 5782 5779 5776 5774 5771 5769 5768 5766 5763 5761 5759 5757 5756 5753 5751 5749